Location: Unspecified
(0.0000°N, 0.0000°E)
Time: 19:45:38
(UTC+00:00)

Quakesat - Pass Details

Date: 02 August 2021
Orbit: 811 x 824 km, 98.7° (Epoch: 20 September)

Event Time Altitude Azimuth Distance (km) Brightness Sun altitude
Rises 05:26:12 0° 29° (NNE) 3,343 ? -9.5°
Reaches altitude 10° 05:28:44 10° 38° (NE) 2,412 ? -8.9°
Maximum altitude 05:33:34 35° 103° (ESE) 1,290 ? -7.8°
Drops below altitude 10° 05:38:24 10° 168° (SSE) 2,416 ? -6.6°
Sets 05:40:55 0° 176° (S) 3,349 ? -6.0°
